Weather History for Canby, MN

Change the Weather History Date:

Thursday, June 20, 2013

  Actual Average (KMML) Record (KMML)
Temperature  
Mean Temperature 79 °F -  
Max Temperature 87 °F 80 °F 98 °F (1988)
Min Temperature 71 °F 58 °F 42 °F (1992)
Cooling Degree Days 14    
Growing Degree Days 29 (Base 50)    
Moisture  
Dew Point 65 °F    
Average Humidity 63    
Maximum Humidity 80    
Minimum Humidity 49    
Precipitation  
Precipitation 0.05 in - - ()
Sea Level Pressure  
Sea Level Pressure 29.86 in    
Wind  
Wind Speed 10 mph (SSE)    
Max Wind Speed 20 mph    
Max Gust Speed 26 mph    
Visibility 10 miles    
Events Rain , Thunderstorm    
Averages and records for this station are not official NWS values.
T = Trace of Precipitation, MM = Missing Value Source: NWS Daily Summary

Daily Weather History Graph

Daily Weather History Graph

Search for Another Location

Airport:

Trip Planner

Search our weather history database for the weather conditions in past years. The results will help you decide how hot, cold, wet, or windy it might be!

Date:

Astronomy

Jun. 20, 2013 Rise Set
Actual Time 5:39 AM CDT 9:14 PM CDT
Civil Twilight 5:02 AM CDT 9:51 PM CDT
Nautical Twilight 4:12 AM CDT 10:40 PM CDT
Astronomical Twilight 3:08 AM CDT 11:45 PM CDT
Moon 6:13 PM CDT (6/20) 3:12 AM CDT (6/20)
Length of Visible Light 16h 49m
Length of Day
15h 34m
Waxing Gibbous, 89% of the Moon is Illuminated
Jun 20
Waxing Gibbous
Jun 23
Full
Jun 29
Last Quarter
Jul 8
New
Jul 15
First Quarter

Hourly Weather History & Observations

Time (CDT) Temp. Heat Index Dew Point Humidity Pressure Visibility Wind Dir Wind Speed Gust Speed Precip Events Conditions
12:14 AM 76.5 °F - 61.9 °F 61% 29.89 in 10.0 mi South 9.2 mph - N/A   Clear
12:35 AM 75.9 °F - 61.9 °F 62% 29.89 in 10.0 mi South 8.1 mph - N/A   Clear
12:55 AM 75.7 °F - 61.7 °F 62% 29.89 in 10.0 mi SSE 8.1 mph - N/A   Clear
1:15 AM 75.4 °F - 61.7 °F 62% 29.90 in 10.0 mi South 10.4 mph - N/A   Clear
1:35 AM 75.7 °F - 61.9 °F 62% 29.89 in 10.0 mi South 9.2 mph 16.1 mph N/A   Clear
1:55 AM 75.6 °F - 61.9 °F 62% 29.89 in 10.0 mi South 13.8 mph 19.6 mph N/A   Clear
2:15 AM 75.4 °F - 62.4 °F 64% 29.88 in 10.0 mi South 15.0 mph 21.9 mph N/A   Clear
2:34 AM 75.0 °F - 62.6 °F 65% 29.88 in 10.0 mi South 11.5 mph 18.4 mph N/A   Clear
2:55 AM 74.7 °F - 62.8 °F 66% 29.89 in 10.0 mi South 10.4 mph 20.7 mph N/A   Clear
3:15 AM 74.5 °F - 62.8 °F 67% 29.89 in 10.0 mi South 12.7 mph 16.1 mph N/A   Clear
3:35 AM 74.3 °F - 62.8 °F 67% 29.89 in 10.0 mi South 11.5 mph 19.6 mph N/A   Clear
3:55 AM 73.9 °F - 62.8 °F 68% 29.89 in 10.0 mi South 11.5 mph 18.4 mph N/A   Scattered Clouds
4:15 AM 73.4 °F - 62.8 °F 69% 29.88 in 10.0 mi South 11.5 mph - N/A   Clear
4:34 AM 73.2 °F - 62.8 °F 70% 29.88 in 10.0 mi South 11.5 mph 18.4 mph N/A   Clear
4:55 AM 72.9 °F - 62.8 °F 71% 29.88 in 10.0 mi South 11.5 mph - N/A   Clear
5:15 AM 72.7 °F - 62.6 °F 71% 29.88 in 10.0 mi South 11.5 mph 17.3 mph N/A   Scattered Clouds
5:35 AM 72.5 °F - 62.6 °F 71% 29.88 in 10.0 mi South 10.4 mph - N/A   Scattered Clouds
5:55 AM 72.3 °F - 62.6 °F 71% 29.88 in 10.0 mi SSE 9.2 mph - N/A   Mostly Cloudy
6:14 AM 71.8 °F - 62.8 °F 73% 29.89 in 10.0 mi SSE 9.2 mph - N/A   Mostly Cloudy
6:35 AM 71.8 °F - 62.8 °F 73% 29.88 in 10.0 mi SSE 10.4 mph - N/A   Scattered Clouds
6:55 AM 71.6 °F - 63.1 °F 75% 29.89 in 10.0 mi SSE 9.2 mph - N/A   Scattered Clouds
7:15 AM 71.8 °F - 63.3 °F 75% 29.92 in 10.0 mi SSE 5.8 mph - N/A   Mostly Cloudy
7:35 AM 71.8 °F - 63.5 °F 75% 29.92 in 10.0 mi SSE 6.9 mph - N/A   Mostly Cloudy
7:55 AM 71.8 °F - 63.9 °F 76% 29.91 in 10.0 mi SSE 8.1 mph - N/A   Scattered Clouds
8:14 AM 71.8 °F - 64.0 °F 77% 29.93 in 10.0 mi SSE 4.6 mph - N/A   Scattered Clouds
8:35 AM 71.8 °F - 64.4 °F 77% 29.93 in 10.0 mi SSE 6.9 mph - N/A   Scattered Clouds
8:55 AM 72.3 °F - 64.4 °F 76% 29.93 in 10.0 mi SE 6.9 mph - N/A   Scattered Clouds
9:15 AM 72.7 °F - 64.4 °F 75% 29.93 in 10.0 mi ESE 5.8 mph - N/A   Mostly Cloudy
9:35 AM 73.4 °F - 65.1 °F 75% 29.93 in 10.0 mi SE 5.8 mph - N/A   Mostly Cloudy
9:55 AM 74.8 °F - 65.7 °F 73% 29.92 in 10.0 mi ESE 6.9 mph - N/A   Scattered Clouds
10:15 AM 76.3 °F - 66.0 °F 70% 29.93 in 10.0 mi ESE 8.1 mph - N/A   Clear
10:35 AM 77.4 °F - 66.2 °F 68% 29.93 in 10.0 mi SE 10.4 mph - N/A   Clear
10:55 AM 77.9 °F - 66.4 °F 68% 29.91 in 10.0 mi SE 10.4 mph 17.3 mph N/A   Clear
11:15 AM 79.3 °F - 67.1 °F 66% 29.90 in 10.0 mi SSE 13.8 mph - N/A   Clear
11:34 AM 79.5 °F - 66.6 °F 64% 29.89 in 10.0 mi SE 16.1 mph 19.6 mph N/A   Clear
11:55 AM 80.1 °F 82.2 °F 66.6 °F 63% 29.88 in 10.0 mi SE 18.4 mph 24.2 mph N/A   Scattered Clouds
12:15 PM 81.0 °F 83.2 °F 66.4 °F 61% 29.88 in 10.0 mi SSE 12.7 mph 21.9 mph N/A   Scattered Clouds
12:35 PM 81.5 °F 83.1 °F 64.6 °F 56% 29.88 in 10.0 mi SSE 15.0 mph 23.0 mph N/A   Scattered Clouds
12:55 PM 81.1 °F 82.9 °F 65.3 °F 58% 29.87 in 10.0 mi SSE 19.6 mph 24.2 mph N/A   Scattered Clouds
1:15 PM 82.9 °F 84.6 °F 64.9 °F 54% 29.87 in 10.0 mi South 18.4 mph 23.0 mph N/A   Scattered Clouds
1:34 PM 83.1 °F 84.8 °F 64.8 °F 54% 29.86 in 10.0 mi SSE 16.1 mph 25.3 mph N/A   Clear
1:55 PM 82.8 °F 84.3 °F 64.8 °F 54% 29.85 in 10.0 mi SSE 15.0 mph 23.0 mph N/A   Clear
2:15 PM 84.4 °F 86.3 °F 65.7 °F 53% 29.85 in 10.0 mi SSE 16.1 mph 26.5 mph N/A   Clear
2:35 PM 84.6 °F 86.6 °F 65.5 °F 53% 29.86 in 10.0 mi SSE 17.3 mph 23.0 mph N/A   Clear
2:55 PM 84.2 °F 86.3 °F 65.7 °F 54% 29.86 in 10.0 mi SSE 12.7 mph 20.7 mph N/A   Clear
3:15 PM 84.9 °F 87.1 °F 66.0 °F 53% 29.85 in 10.0 mi South 10.4 mph 21.9 mph N/A   Scattered Clouds
3:35 PM 86.9 °F 88.9 °F 65.8 °F 49% 29.84 in 10.0 mi SSE 13.8 mph 20.7 mph N/A   Mostly Cloudy
3:55 PM 86.9 °F 88.9 °F 65.8 °F 49% 29.84 in 10.0 mi SSE 15.0 mph 20.7 mph N/A   Scattered Clouds
4:14 PM 86.4 °F 88.4 °F 65.7 °F 50% 29.84 in 10.0 mi SSE 13.8 mph 21.9 mph N/A   Scattered Clouds
4:35 PM 87.4 °F 90.1 °F 66.9 °F 50% 29.83 in 10.0 mi SSE 15.0 mph 20.7 mph N/A   Scattered Clouds
4:55 PM 85.6 °F 88.2 °F 66.6 °F 53% 29.83 in 10.0 mi South 12.7 mph 20.7 mph N/A   Mostly Cloudy
5:15 PM 86.0 °F 88.8 °F 67.1 °F 53% 29.83 in 10.0 mi SSE 12.7 mph 16.1 mph N/A   Overcast
5:34 PM 86.2 °F 89.1 °F 67.3 °F 53% 29.83 in 10.0 mi South 11.5 mph 20.7 mph N/A   Mostly Cloudy
5:55 PM 85.8 °F 88.5 °F 67.1 °F 53% 29.82 in 10.0 mi South 9.2 mph - N/A   Overcast
6:15 PM 86.0 °F 88.8 °F 67.3 °F 53% 29.82 in 10.0 mi SSE 11.5 mph 17.3 mph N/A   Overcast
6:35 PM 85.5 °F 88.2 °F 67.1 °F 54% 29.81 in 10.0 mi South 6.9 mph - N/A   Overcast
6:55 PM 85.1 °F 88.2 °F 68.0 °F 56% 29.81 in 10.0 mi SSE 8.1 mph - N/A   Overcast
7:14 PM 84.6 °F 87.6 °F 68.0 °F 57% 29.80 in 10.0 mi SSE 8.1 mph - N/A   Overcast
7:35 PM 84.2 °F 87.6 °F 68.4 °F 59% 29.80 in 10.0 mi SE 8.1 mph - N/A   Overcast
7:55 PM 84.0 °F 87.6 °F 68.5 °F 60% 29.80 in 10.0 mi SE 6.9 mph - N/A   Mostly Cloudy
8:15 PM 83.5 °F 86.7 °F 68.4 °F 60% 29.79 in 10.0 mi SSE 9.2 mph - N/A   Mostly Cloudy
8:35 PM 84.2 °F 87.1 °F 67.6 °F 57% 29.80 in 10.0 mi SSE 6.9 mph - N/A   Mostly Cloudy
8:55 PM 84.2 °F 87.1 °F 67.6 °F 57% 29.80 in 10.0 mi SSE 4.6 mph - N/A   Overcast
9:14 PM 83.5 °F 86.4 °F 67.8 °F 59% 29.80 in 10.0 mi SSE 5.8 mph - N/A   Overcast
9:35 PM 82.8 °F 85.8 °F 68.0 °F 61% 29.80 in 10.0 mi SSE 6.9 mph - N/A   Overcast
9:55 PM 82.6 °F 85.5 °F 68.0 °F 61% 29.80 in 10.0 mi SSE 6.9 mph - N/A   Mostly Cloudy
10:15 PM 82.4 °F 85.2 °F 67.8 °F 61% 29.80 in 10.0 mi SSE 6.9 mph - N/A   Mostly Cloudy
10:35 PM 82.4 °F 85.4 °F 68.0 °F 62% 29.79 in 10.0 mi SSE 10.4 mph - N/A   Mostly Cloudy
10:54 PM 81.9 °F 84.8 °F 68.2 °F 63% 29.79 in 10.0 mi SSE 11.5 mph 18.4 mph N/A Thunderstorm Mostly Cloudy
11:15 PM 77.9 °F - 70.3 °F 77% 29.79 in 7.0 mi South 6.9 mph - 0.03 in Rain , Thunderstorm Thunderstorms and Rain
11:35 PM 77.2 °F - 70.5 °F 80% 29.77 in 10.0 mi South 6.9 mph - 0.05 in Thunderstorm Mostly Cloudy
11:55 PM 78.3 °F - 69.8 °F 75% 29.76 in 10.0 mi SSE 11.5 mph - 0.05 in   Scattered Clouds